SCP
0 1 1 1 1 1 1 1 1 1 1 1 1 1 1 1 1 1 1 1 0 0 0 0 0 0 0 0 0 0 0 0 0 0 0 0 0 0 0 0 0 0 0
0 1 1 1 1 1 1 1 1 1 1 1 1 1 1 1 1 1 1 1 1 1 1 0 0 0 1 1 1 1 0 0 0 0 0 0 0 0 0 0 0 0 0
0 0 1 1 1 1 1 1 1 1 1 1 1 1 1 1 1 1 1 1 1 1 1 1 1 1 1 1 1 1 1 1 0 0 0 0 0 0 0 0 0 0 0
0 0 0 1 1 1 1 1 1 1 1 1 1 1 1 1 1 1 1 1 1 1 1 1 1 1 1 1 1 1 1 1 1 0 0 0 0 0 0 0 0 0 0
0 0 0 0 0 0 0 0 1 1 1 1 1 1 1 1 1 1 1 1 1 1 1 1 1 1 1 1 1 1 1 1 1 1 0 0 0 0 0 0 0 0 0
0 0 0 0 0 0 0 0 0 0 0 0 0 0 1 1 1 1 1 1 1 1 1 1 1 1 1 1 1 1 1 1 1 1 0 1 1 1 1 1 0 0 0
0 0 0 0 0 0 0 0 0 0 0 0 0 0 0 1 1 1 1 1 1 1 1 1 1 1 1 1 1 1 1 1 1 1 1 1 1 1 1 1 1 1 1
0 0 0 0 0 0 0 0 0 0 0 0 0 0 0 0 1 1 1 1 1 1 1 1 1 1 1 1 1 1 1 1 1 1 1 1 1 1 1 1 1 1 1
0 0 0 0 0 0 0 0 0 0 0 0 0 0 0 0 0 0 1 1 1 1 1 1 1 1 1 1 1 1 1 1 1 1 1 1 1 1 1 1 1 1 1
0 0 0 0 0 0 0 0 0 0 0 0 0 0 0 0 0 0 0 0 0 1 1 1 1 1 1 1 2 2 1 1 1 1 1 1 1 1 1 1 1 1 1
0 0 0 0 0 0 0 0 0 0 0 0 0 0 0 0 0 0 0 0 0 0 1 1 1 1 1 1 1 2 1 1 1 1 1 2 2 2 1 1 1 2 2
0 0 0 0 0 0 0 0 0 0 0 0 0 0 0 0 0 0 0 0 0 0 0 0 1 1 1 1 1 1 1 1 1 1 1 2 3 2 1 1 2 2 2
0 0 0 0 0 0 0 0 0 0 0 0 0 0 0 0 0 0 0 0 0 0 0 0 0 0 0 1 1 1 1 1 1 1 2 3 3 2 2 2 2 2 2
0 0 0 0 0 0 0 0 0 0 0 0 0 0 0 0 0 0 0 0 0 0 0 0 0 0 0 0 1 1 1 1 1 1 2 3 3 3 2 2 2 2 2
0 0 0 0 0 0 0 0 0 0 0 0 0 0 0 0 0 0 0 0 0 0 0 0 0 0 0 0 0 0 1 1 1 1 2 3 3 3 2 2 2 2 2
0 0 0 0 0 0 0 0 0 0 0 0 0 0 0 0 0 0 0 0 0 0 0 0 0 0 0 0 0 0 0 1 1 1 1 2 3 3 2 2 2 2 2
0 0 0 0 0 0 0 0 0 0 0 0 0 0 0 0 0 0 0 0 0 0 0 0 0 0 0 0 0 0 0 0 1 1 1 1 2 2 2 2 2 3 3
0 0 0 0 0 0 0 0 0 0 0 0 0 0 0 0 0 0 0 0 0 0 0 0 0 0 0 0 0 0 0 0 0 0 1 1 1 1 1 1 2 3 3
0 0 0 0 0 0 0 0 0 0 0 0 0 0 0 0 0 0 0 0 0 0 0 0 0 0 0 0 0 0 0 0 0 0 0 1 1 1 1 1 2 2 3
0 0 0 0 0 0 0 0 0 0 0 0 0 0 0 0 0 0 0 0 0 0 0 0 0 0 0 0 0 0 0 0 0 0 0 0 1 1 1 1 1 1 2
0 0 0 0 0 0 0 0 0 0 0 0 0 0 0 0 0 0 0 0 0 0 0 0 0 0 0 0 0 0 0 0 0 0 0 0 1 1 1 1 1 1 1
0 0 0 0 0 0 0 0 0 0 0 0 0 0 0 0 0 0 0 0 0 0 0 0 0 0 0 0 0 0 0 0 0 0 0 0 0 1 1 1 1 1 1
0 0 0 0 0 0 0 0 0 0 0 0 0 0 0 0 0 0 0 0 0 0 0 0 0 0 0 0 0 0 0 0 0 0 0 0 0 0 1 1 1 1 1
0 0 0 0 0 0 0 0 0 0 0 0 0 0 0 0 0 0 0 0 0 0 0 0 0 0 0 0 0 0 0 0 0 0 0 0 0 0 0 0 1 1 1
0 0 0 0 0 0 0 0 0 0 0 0 0 0 0 0 0 0 0 0 0 0 0 0 0 0 0 0 0 0 0 0 0 0 0 0 0 0 0 0 0 1 1
0 0 0 0 0 0 0 0 0 0 0 0 0 0 0 0 0 0 0 0 0 0 0 0 0 0 0 0 0 0 0 0 0 0 0 0 0 0 0 0 0 1 1
Wind_Speed
12 15 25 25 24 21 20 19 18 17 16 16 16 16 16 15 15 14 13 11 10 10 9 8 8 8 8 7 7 6 5 4 4 4 3 2 1 1 1 1 4 1 7
11 15 24 25 25 25 24 22 21 20 19 18 17 16 16 15 15 15 14 13 12 11 10 9 9 9 9 8 8 7 6 5 4 3 3 3 3 3 2 0 4 4 6
11 15 19 25 25 25 25 25 24 23 22 21 20 19 18 17 16 15 14 14 13 12 11 10 10 10 10 9 8 8 7 6 5 4 5 4 5 6 4 2 1 3 4
11 13 17 23 25 25 25 25 24 24 23 23 22 21 20 19 18 17 15 14 14 13 12 11 11 10 10 9 9 8 8 7 6 6 5 6 5 8 7 5 2 2 3
9 10 16 23 24 24 25 25 25 24 24 23 23 22 21 20 19 18 17 15 15 14 13 12 11 11 10 9 9 9 9 8 7 7 6 5 4 8 8 6 5 3 3
10 10 14 23 23 24 24 25 24 24 24 24 24 24 23 21 20 19 17 17 16 15 14 13 12 11 10 9 9 9 9 9 7 6 7 6 4 9 9 7 5 4 4
11 11 13 24 24 23 24 24 24 24 24 24 24 25 24 23 21 20 19 18 18 17 15 14 13 11 10 10 9 9 9 8 6 6 6 5 3 10 9 8 7 6 6
12 12 13 23 25 25 24 24 24 23 24 24 24 26 25 23 22 22 21 21 20 19 18 16 14 13 12 11 10 9 7 7 8 8 7 5 6 11 11 9 8 8 7
12 12 12 13 17 23 24 24 24 23 24 24 24 26 25 24 23 23 23 23 22 21 20 18 16 14 13 12 11 9 8 8 6 5 8 5 9 13 12 10 9 10 9
12 12 13 13 14 14 13 21 23 22 23 23 23 25 25 23 22 22 22 24 23 23 22 20 18 17 15 13 12 10 9 7 6 7 6 5 10 14 13 11 9 11 11
14 13 12 13 13 14 13 17 17 18 19 19 17 22 19 11 12 13 21 24 24 25 24 22 22 20 16 12 12 13 9 4 6 7 6 9 11 14 14 12 10 10 12
14 13 13 13 13 13 13 11 8 9 9 10 9 11 9 9 10 14 20 23 24 24 23 24 25 20 13 7 8 9 5 7 8 7 6 12 14 15 14 12 11 11 12
11 12 13 13 12 12 10 9 7 6 6 8 9 10 8 8 8 8 8 11 12 15 11 16 15 11 10 8 6 5 6 6 5 5 6 13 15 15 14 13 13 13 13
11 12 13 13 12 12 11 9 8 7 6 7 8 10 8 7 8 8 8 9 8 7 9 9 9 13 14 13 10 8 7 5 5 4 4 11 14 14 14 14 14 14 14
12 13 13 13 13 12 11 9 10 8 8 8 7 8 10 8 9 9 9 8 8 7 9 10 10 12 13 14 12 11 9 7 7 6 4 10 13 13 14 15 16 15 16
12 13 13 13 13 13 11 10 9 8 8 8 7 9 10 9 9 9 10 9 9 9 9 9 11 11 11 11 13 14 12 10 7 7 5 7 13 14 14 15 16 17 17
11 12 13 13 14 13 13 12 10 8 9 8 8 9 11 11 9 9 9 10 9 10 11 9 10 9 10 11 13 15 12 11 10 9 7 4 7 12 14 16 16 16 17
10 12 13 14 14 14 13 11 10 9 10 8 8 8 12 13 12 9 9 9 11 10 9 9 9 10 10 10 11 12 12 11 13 10 8 5 4 6 11 15 15 16 17
10 11 13 13 13 14 12 11 10 10 9 9 8 8 11 12 13 10 8 9 11 10 10 11 10 10 11 11 11 11 10 11 12 12 10 7 6 5 6 11 15 15 15
9 11 12 12 13 12 9 9 8 9 8 8 7 8 11 11 13 11 9 11 12 10 10 10 12 11 10 11 12 12 11 12 11 11 11 8 6 7 7 6 7 10 15
9 11 12 12 12 10 9 10 10 10 9 8 7 11 11 11 12 10 9 10 11 10 12 13 12 13 11 10 10 11 10 12 12 10 9 8 7 6 6 7 6 5 6
9 10 10 11 11 10 9 8 8 9 8 8 8 9 10 11 12 11 11 10 10 10 11 12 12 10 10 10 10 10 7 7 5 7 6 7 8 6 6 7 7 7 5
8 9 10 10 11 10 10 7 9 7 7 7 8 7 9 11 11 10 10 10 10 9 9 11 11 12 11 11 9 7 6 6 11 9 8 6 5 5 5 5 7 8 7
8 7 8 9 10 9 9 9 11 10 9 10 8 8 10 11 11 10 10 10 10 9 10 10 11 10 11 10 9 7 8 9 7 8 10 8 8 7 5 5 5 6 7
7 7 7 8 8 9 9 9 9 9 8 8 9 10 9 9 9 10 10 9 10 9 10 10 10 10 9 10 9 9 10 9 9 7 11 12 10 8 7 6 4 3 5
7 6 7 8 8 8 9 9 10 11 11 12 11 10 9 7 7 9 12 9 10 9 10 10 9 11 10 11 9 9 9 8 8 7 8 11 11 10 10 8 6 3 2
Wind_Direction
355 1 10 14 16 16 14 13 11 9 6 3 0 359 357 354 353 353 349 348 344 337 332 325 323 320 319 319 319 322 327 337 344 342 332 288 202 151 121 345 343 131 108
4 9 14 17 20 22 22 20 18 15 11 7 3 358 355 351 348 345 343 342 342 335 328 323 318 312 309 311 311 309 306 307 316 321 300 262 214 200 196 308 8 96 110
20 18 18 22 23 24 25 24 23 21 18 14 9 4 359 353 348 343 342 340 340 337 329 324 321 310 303 301 300 297 292 289 288 287 281 256 209 203 196 178 56 92 111
30 30 22 25 26 27 26 25 23 21 20 17 13 9 4 359 354 348 343 341 339 336 329 321 318 311 301 292 288 284 278 276 273 271 264 248 213 194 188 184 191 160 133
30 38 25 26 27 27 26 24 23 20 19 17 14 10 6 2 359 355 351 345 339 334 329 320 314 309 302 290 281 277 271 266 260 261 268 266 197 176 183 186 194 197 174
23 28 27 26 26 26 25 22 20 18 16 15 13 10 6 3 2 0 358 354 347 337 329 323 314 308 304 294 280 273 267 261 253 250 255 257 183 174 182 186 194 202 196
23 18 22 23 20 21 22 18 17 16 13 12 12 9 4 2 3 3 3 0 354 345 334 323 315 308 303 298 286 274 263 258 244 258 259 257 194 175 185 189 194 202 205
23 20 18 18 15 12 14 15 12 12 10 8 10 7 2 0 1 3 3 360 354 348 341 331 319 308 299 293 287 278 264 254 250 248 250 241 207 184 192 194 199 203 207
25 21 16 16 11 6 4 8 6 7 8 5 8 6 1 358 358 359 360 356 351 347 342 335 327 315 301 290 283 277 265 249 256 267 264 237 214 202 200 197 205 205 206
26 21 16 13 9 2 354 2 0 1 4 2 5 3 1 356 355 354 356 350 348 346 341 336 333 323 308 292 279 269 258 253 246 251 253 237 218 213 210 204 209 209 205
25 18 15 9 7 0 353 356 354 356 0 359 2 0 359 350 349 351 351 347 348 345 341 341 338 328 315 294 274 259 248 235 241 243 236 227 213 214 215 211 213 213 208
19 14 13 6 4 1 354 351 343 349 353 352 357 355 354 350 346 354 345 345 346 342 346 346 339 332 324 307 291 274 247 238 242 246 228 206 205 212 216 216 217 218 214
17 13 11 4 3 1 353 348 343 345 349 347 352 352 353 349 344 351 341 339 339 340 347 341 339 333 324 315 302 282 253 251 254 255 234 199 198 209 218 222 223 223 221
16 12 10 4 2 359 352 345 343 344 346 344 347 351 355 351 348 347 339 334 335 339 340 339 331 326 325 320 310 298 279 260 256 257 244 198 190 204 220 228 229 229 227
15 10 7 1 3 358 351 347 346 342 343 343 345 350 358 356 348 345 335 333 332 338 338 332 326 327 327 322 318 313 303 285 273 266 243 200 190 197 215 230 233 233 231
13 9 4 0 2 357 353 348 342 341 341 342 344 348 358 357 346 344 334 332 335 341 334 328 327 329 325 323 322 320 310 299 282 271 254 212 202 199 210 225 233 235 234
13 9 3 359 1 358 351 348 344 341 343 341 343 348 359 354 346 344 335 333 340 338 331 330 327 331 329 328 325 322 316 308 299 287 271 233 210 210 211 219 228 233 235
15 10 4 1 359 356 350 350 343 343 342 340 344 350 357 347 346 343 335 334 339 336 332 332 335 337 330 326 321 317 313 308 300 289 276 258 222 209 215 218 223 229 233
18 11 4 0 359 354 351 349 340 342 340 338 344 352 349 343 344 341 332 338 338 334 334 334 337 332 327 323 316 309 307 305 299 294 284 265 244 218 203 211 217 224 230
20 14 3 359 358 352 352 344 339 340 337 335 342 349 345 342 341 338 335 339 337 333 334 332 331 331 324 320 317 311 303 293 286 281 278 270 250 230 211 201 203 220 226
18 14 2 357 355 354 353 344 342 339 336 334 343 345 341 339 337 336 341 338 336 332 331 331 333 327 326 322 318 315 297 278 264 263 261 261 254 242 221 209 201 200 215
18 13 0 356 351 353 350 338 336 330 328 333 340 334 335 337 337 340 343 340 335 330 328 331 330 326 324 329 321 316 309 302 331 296 278 260 250 241 232 218 207 206 204
19 12 359 352 348 349 346 339 337 326 329 337 334 331 336 338 335 336 341 340 331 328 324 327 327 331 324 319 317 312 315 327 331 306 315 309 308 273 241 226 213 207 208
18 11 359 348 346 347 346 341 339 339 337 334 331 328 334 333 332 335 341 338 330 325 323 325 332 323 319 318 316 307 307 306 300 311 313 321 318 308 292 257 227 213 206
15 8 355 344 344 345 345 341 338 333 330 327 327 330 332 327 329 337 340 335 329 323 322 322 321 319 315 310 310 311 309 303 286 288 298 311 319 318 318 304 270 227 206
12 5 351 344 342 343 343 340 337 333 333 330 332 333 330 326 329 335 335 332 325 321 320 317 316 315 312 310 310 308 307 303 306 301 295 303 307 310 315 312 304 273 222